Location: Beulah
(33.1426°N, 83.0557°W)
Time: 03:00:27
(UTC+00:00)

Envisat - Pass Details

Date: 06 December 2021
Orbit: 764 x 766 km, 98.2° (Epoch: 23 January)

Event Time Altitude Azimuth Distance (km) Brightness Sun altitude
Rises 09:22:27 0° 32° (NNE) 3,234 6.5 -36.8°
Reaches altitude 10° 09:25:29 10° 51° (NE) 2,303 5.9 -36.1°
Maximum altitude 09:28:55 18° 94° (E) 1,799 5.5 -35.4°
Drops below altitude 10° 09:32:20 10° 137° (SE) 2,293 6.0 -34.7°
Sets 09:35:20 0° 156° (SSE) 3,214 6.6 -34.1°
